[[{"header":{"parameterUnit":"m.s-1","parameterCategory":1,"la1":30.2991,"la2":30.254,"lo1":-89.0895,"lo2":-89.0444,"dy":0.0017,"dx":0.0017,"nx":28,"ny":28,"refTime":"2025-06-07T09:00:00:Z","depth":0,"parameterNumber":2,"parameterNumberName":"U-component_of_WINDS"},"data":[0,0,0,0,0,0,0,0,0,0,0,0,0,0,0,0,0,0,0,0,0,0,0,0,0,0,0,0,0,0,0,0,0,0,0,0,0,0,0,0,0,0,0,0,0,0,0,0,0,0,0,0,0,0,0,0,0,0,3.6182,3.6182,0,3.6193,3.6193,3.6193,3.6142,3.6141,3.6139,3.6138,3.6153,3.6154,3.6156,0,0,0,0,0,0,0,0,0,0,0,0,0,3.6123,3.6124,3.6182,3.6182,3.6182,3.6193,3.6193,3.6193,3.6142,3.6141,3.6139,3.6137,3.6152,3.6154,3.6156,0,0,0,0,0,0,0,0,0,0,0,0,0,3.6143,3.6125,3.6182,3.6158,3.6156,3.6193,3.6193,3.6193,3.6143,3.6141,3.6138,3.6136,3.6151,3.6154,3.6157,3.6218,0,0,3.6165,3.6166,0,0,0,0,0,0,0,0,3.6142,3.6145,3.6162,3.616,3.6158,3.6164,3.6177,3.6202,3.6143,3.6148,3.6138,3.6135,3.6159,3.616,3.6167,3.6218,3.6219,3.6165,3.6167,3.6168,3.6169,0,0,0,0,0,0,0,3.614,3.6144,3.6186,3.6162,3.616,3.6149,3.6149,3.6182,3.6166,3.6148,3.6144,3.6146,3.6157,3.6165,3.6167,3.6219,3.6165,3.6167,3.6169,3.617,3.6323,3.6325,0,0,0,0,0,0,3.6142,3.6143,3.6186,3.6187,3.6144,3.6152,3.6152,3.6164,3.6165,3.6163,3.6147,3.6143,3.6162,3.6164,3.6168,3.624,3.6168,3.617,3.6172,3.632,3.6323,3.6326,0,0,0,0,0,0,3.614,3.6146,3.6186,3.6164,3.6168,3.6155,3.6169,3.6166,3.6173,3.6165,3.6162,3.6158,3.616,3.6164,3.6206,3.624,3.6172,3.6174,3.6317,3.6321,3.6325,3.6385,0,0,0,0,0,0,3.6139,3.6146,3.6167,3.6165,3.617,3.6222,3.6171,3.6167,3.6178,3.6172,3.6175,3.6173,3.6158,3.6202,3.6208,3.6242,3.6176,3.6314,3.6319,3.6323,3.6379,3.639,3.6399,0,0,0,0,0,3.6137,3.6185,3.6169,3.6174,3.6196,3.6224,3.6227,3.6208,3.6181,3.6203,3.6198,3.6173,3.6235,3.6207,3.6213,3.6249,3.6312,3.6318,3.6323,3.6375,3.6388,3.6398,0,0,0,0,0,0,3.6192,3.6184,3.6166,3.6214,3.622,3.6215,3.6243,3.6222,3.6237,3.6232,3.6209,3.621,3.6256,3.6257,3.6225,3.6309,3.6269,3.6276,3.6306,3.6318,3.6328,3.6327,3.6178,0,0,0,0,0,3.621,3.6232,3.6224,3.6267,3.6271,3.6257,3.6268,3.6253,3.6259,3.6262,3.626,3.6268,3.6289,3.6304,3.6323,3.638,3.638,3.6407,3.6417,3.6425,3.6431,3.6462,3.6475,3.6344,3.6344,3.6344,0,0,3.6247,3.6245,3.626,3.6278,3.6281,3.6306,3.6259,3.6287,3.6306,3.6266,3.6305,3.6305,3.6312,3.6362,3.6384,3.6364,3.6468,3.6432,3.6438,3.644,3.6469,3.6482,3.6493,3.6348,3.6347,3.6346,0,0,3.6327,3.6327,3.6363,3.6367,3.6372,3.6363,3.6372,3.6371,3.6368,3.6407,3.6378,3.6401,3.6438,3.6445,3.6453,3.6538,3.6515,3.6545,3.6595,3.6626,3.6636,3.6645,3.6676,3.6687,3.6551,3.6552,3.6552,0,3.6372,3.6406,3.6385,3.6415,3.6424,3.6389,3.6427,3.6432,3.6444,3.6452,3.6429,3.6476,3.6478,3.653,3.655,3.6558,3.6569,3.6544,3.6636,3.6645,3.6653,3.6682,3.6694,3.6555,3.6555,3.6554,3.6554,0,3.6463,3.6488,3.6517,3.6528,3.654,3.6574,3.6559,3.6575,3.656,3.6553,3.6594,3.6596,3.6616,3.6627,3.6613,3.6677,3.6665,3.664,3.6599,3.6669,3.6696,3.6707,3.656,3.6559,3.6558,3.6557,0,0,3.6576,3.6576,3.6587,3.6592,3.6596,3.6615,3.6648,3.6666,3.6681,3.6691,3.6719,3.6752,3.6729,3.6738,3.6725,3.6752,3.6819,3.6723,3.6723,3.6741,3.6892,3.691,3.6924,3.6805,3.6807,3.6808,3.6891,0,3.6655,3.6709,3.6692,3.6748,3.6771,3.674,3.6769,3.6775,3.6771,3.6791,3.6787,3.6811,3.6778,3.6784,3.6809,3.6806,3.6849,3.68,3.6832,3.6833,3.6831,3.6937,3.6957,3.7035,3.6902,3.6903,3.6905,0,3.6753,3.6766,3.6824,3.6825,3.6834,3.686,3.6876,3.6896,3.6903,3.6898,3.691,3.6891,3.6925,3.6885,3.6933,3.69,3.6912,3.6913,3.6916,3.6918,3.6873,3.6943,3.7059,3.7071,3.6921,3.692,3.6918,0,3.6831,3.6863,3.6902,3.6907,3.6909,3.6929,3.6931,3.6936,3.6948,3.6963,3.6971,3.699,3.7,3.7016,3.7004,3.6976,3.7054,3.7013,3.7052,3.7053,3.707,3.7069,3.719,3.7078,3.7078,3.7078,3.7077,0,3.692,3.6957,3.6937,3.6961,3.7002,3.6983,3.7025,3.7023,3.7028,3.7053,3.7027,3.7051,3.7033,3.7056,3.7047,3.7089,3.7094,3.7092,3.7089,3.7094,3.7094,3.7101,3.7096,3.7081,3.708,3.708,3.7079,0,3.7013,3.7001,3.7042,3.704,3.7041,3.7072,3.7071,3.7094,3.7088,3.712,3.7126,3.7118,3.7143,3.7133,3.716,3.7154,3.7208,3.7198,3.7205,3.7202,3.7242,3.7238,3.7372,3.7388,3.7266,3.7267,3.7268,0,3.7071,3.7099,3.71,3.7114,3.7118,3.7141,3.7153,3.7136,3.715,3.7161,3.7184,3.7207,3.7225,3.7268,3.7265,3.7287,3.7277,3.7322,3.728,3.7285,3.7278,3.7276,3.7279,3.7331,3.7332,3.7333,3.7334,0,3.7175,3.7168,3.7186,3.7203,3.7218,3.7231,3.7241,3.7255,3.7238,3.7256,3.7281,3.7295,3.7323,3.7347,3.7367,3.737,3.735,3.7348,3.7358,3.7363,3.7366,3.7365,3.7228,3.7345,3.7344,3.7343,3.7342,3.7342,3.7252,3.7275,3.728,3.7302,3.7308,3.7319,3.7341,3.7338,3.7358,3.7378,3.7368,3.7398,3.7406,3.743,3.7437,3.7461,3.7443,3.7458,3.7462,3.7466,3.7471,3.7363,3.7465,3.7464,3.7464,3.7464,3.7464,0,3.7354,3.7356,3.7376,3.7392,3.7409,3.7388,3.7399,3.7415,3.7442,3.7451,3.7469,3.7499,3.7523,3.7522,3.7544,3.7564,3.7555,3.757,3.7568,3.757,3.7485,3.7474,3.7577,3.7577,3.7577,3.7577,3.7577,3.7577,3.741,3.7449,3.7442,3.7485,3.7487,3.7515,3.7523,3.7534,3.7541,3.7575,3.7594,3.7593,3.7599,3.7621,3.7643,3.7642,3.7651,3.767,3.7666,3.7587,3.7576,3.7565,3.7554,3.7672,3.7672,3.7748,3.7749,3.775]},{"header":{"parameterUnit":"m.s-1","parameterCategory":1,"la1":30.2991,"la2":30.254,"lo1":-89.0895,"lo2":-89.0444,"dy":0.0017,"dx":0.0017,"nx":28,"ny":28,"refTime":"2025-06-07T09:00:00:Z","depth":0,"parameterNumber":3,"parameterNumberName":"V-component_of_WINDS"},"data":[0,0,0,0,0,0,0,0,0,0,0,0,0,0,0,0,0,0,0,0,0,0,0,0,0,0,0,0,0,0,0,0,0,0,0,0,0,0,0,0,0,0,0,0,0,0,0,0,0,0,0,0,0,0,0,0,0,0,2.2906,2.2906,0,2.2941,2.2941,2.2941,2.2939,2.2938,2.2938,2.2937,2.297,2.2971,2.2972,0,0,0,0,0,0,0,0,0,0,0,0,0,2.2833,2.2835,2.2906,2.2906,2.2907,2.2941,2.2941,2.2941,2.2939,2.2938,2.2938,2.2937,2.2969,2.2971,2.2972,0,0,0,0,0,0,0,0,0,0,0,0,0,2.2866,2.2835,2.2906,2.291,2.291,2.294,2.2941,2.2942,2.2939,2.2938,2.2937,2.2937,2.2969,2.2971,2.2973,2.3,0,0,2.2979,2.298,0,0,0,0,0,0,0,0,2.2864,2.2869,2.2909,2.2909,2.291,2.2935,2.2927,2.2961,2.2939,2.2928,2.2937,2.2936,2.2958,2.2961,2.2969,2.3002,2.3003,2.2979,2.298,2.2981,2.2982,0,0,0,0,0,0,0,2.2862,2.2867,2.2919,2.2909,2.291,2.2908,2.2912,2.2934,2.2947,2.2929,2.2929,2.2933,2.2959,2.2967,2.297,2.3004,2.2979,2.2981,2.2982,2.2983,2.3059,2.3059,0,0,0,0,0,0,2.2859,2.2865,2.2918,2.2921,2.2885,2.291,2.2914,2.2927,2.2947,2.2949,2.2934,2.2933,2.2964,2.2968,2.2971,2.3003,2.2981,2.2983,2.2984,2.3058,2.3059,2.306,0,0,0,0,0,0,2.2858,2.2864,2.2917,2.2893,2.29,2.2912,2.2927,2.2929,2.2937,2.295,2.2952,2.294,2.2964,2.2968,2.2993,2.3004,2.2984,2.2986,2.3057,2.3058,2.3059,2.3069,0,0,0,0,0,0,2.2856,2.2863,2.2875,2.2893,2.2901,2.2939,2.2928,2.293,2.2941,2.294,2.2957,2.2959,2.2964,2.299,2.2995,2.3007,2.2987,2.3056,2.3057,2.3059,2.3068,2.307,2.3073,0,0,0,0,0,2.2853,2.2876,2.2876,2.2882,2.2916,2.294,2.2944,2.295,2.2942,2.2953,2.2961,2.2959,2.3003,2.2992,2.2998,2.3011,2.3055,2.3057,2.3059,2.3067,2.307,2.3073,0,0,0,0,0,0,2.2858,2.2879,2.2878,2.2909,2.2923,2.294,2.2954,2.2953,2.2969,2.2968,2.2973,2.2976,2.3001,2.3008,2.2997,2.3038,2.3028,2.3031,2.3032,2.3035,2.3038,2.3035,2.2989,0,0,0,0,0,2.2863,2.2882,2.2899,2.2923,2.2931,2.2941,2.2952,2.2955,2.2969,2.2975,2.2985,2.2998,2.3015,2.3025,2.3042,2.3069,2.3072,2.3081,2.3083,2.3085,2.3087,2.31,2.3104,2.3066,2.3066,2.3066,0,0,2.2873,2.2887,2.2898,2.2925,2.2936,2.2954,2.2946,2.2966,2.2979,2.2978,2.3001,2.3009,2.3024,2.3049,2.3061,2.3057,2.3099,2.3087,2.3089,2.309,2.3103,2.3106,2.311,2.3067,2.3067,2.3066,0,0,2.29,2.2913,2.2934,2.2946,2.2963,2.297,2.2975,2.2992,2.2997,2.3021,2.302,2.3035,2.3064,2.3074,2.3083,2.3113,2.311,2.3118,2.3131,2.3144,2.3147,2.3149,2.3158,2.3162,2.312,2.312,2.312,0,2.291,2.2938,2.2945,2.2965,2.2976,2.2976,2.2997,2.3007,2.3029,2.3036,2.303,2.3066,2.3076,2.3103,2.311,2.3118,2.3123,2.3116,2.3146,2.3149,2.3151,2.316,2.3163,2.3121,2.3121,2.3121,2.3121,0,2.2948,2.2968,2.2983,2.3004,2.3017,2.3037,2.3045,2.3057,2.3059,2.3066,2.3089,2.3101,2.3119,2.3126,2.3128,2.3153,2.3149,2.3145,2.3135,2.3156,2.3164,2.3167,2.3122,2.3122,2.3122,2.3122,0,0,2.298,2.3004,2.3009,2.3018,2.3037,2.3052,2.3071,2.3089,2.3099,2.3113,2.3128,2.3153,2.3148,2.3159,2.3161,2.3173,2.3194,2.3167,2.3167,2.317,2.322,2.3222,2.3226,2.3192,2.3193,2.3194,2.3218,0,2.3007,2.3043,2.3049,2.3079,2.3096,2.3097,2.3113,2.3126,2.3132,2.3147,2.3153,2.317,2.3164,2.317,2.3182,2.3189,2.3203,2.3187,2.3205,2.3206,2.32,2.3231,2.3233,2.3256,2.3222,2.3222,2.3223,0,2.3044,2.306,2.3092,2.3108,2.3115,2.313,2.3147,2.3161,2.3175,2.3178,2.319,2.3191,2.3209,2.3199,2.3224,2.3212,2.322,2.3224,2.3225,2.3226,2.3214,2.3231,2.3263,2.3266,2.3228,2.3228,2.3227,0,2.3062,2.3091,2.3114,2.3122,2.3141,2.3151,2.3159,2.3172,2.3182,2.3196,2.3203,2.3218,2.3227,2.3238,2.3243,2.3236,2.3267,2.3257,2.3269,2.3269,2.3274,2.3274,2.3307,2.3282,2.3282,2.3282,2.3282,0,2.3091,2.311,2.3122,2.3136,2.3157,2.3163,2.3183,2.3191,2.3202,2.3216,2.3218,2.323,2.3237,2.325,2.3254,2.3273,2.3277,2.3279,2.328,2.3278,2.3278,2.3283,2.3281,2.3283,2.3282,2.3282,2.3282,0,2.3114,2.3122,2.3147,2.3163,2.3167,2.3182,2.3195,2.3207,2.3214,2.3231,2.3236,2.3245,2.3261,2.3268,2.3287,2.3289,2.3311,2.3311,2.3306,2.3306,2.3317,2.3315,2.3353,2.3358,2.3331,2.3331,2.3331,0,2.3131,2.3146,2.3163,2.3173,2.3182,2.3198,2.3209,2.3215,2.3225,2.3241,2.3252,2.3268,2.3281,2.3306,2.3314,2.3328,2.3328,2.334,2.333,2.3327,2.3326,2.3325,2.3325,2.3342,2.3342,2.3342,2.3342,0,2.3161,2.3164,2.318,2.3196,2.3209,2.3222,2.3235,2.3243,2.3251,2.3262,2.3279,2.3289,2.3309,2.3324,2.3339,2.3346,2.3345,2.3346,2.3349,2.3347,2.3343,2.3344,2.331,2.3344,2.3344,2.3344,2.3344,2.3344,2.318,2.3193,2.3207,2.3224,2.3234,2.3246,2.3258,2.3266,2.328,2.3297,2.33,2.3317,2.3329,2.3349,2.3357,2.3369,2.3366,2.3371,2.3372,2.3373,2.3372,2.3342,2.3372,2.3372,2.3372,2.3372,2.3372,0,2.3208,2.3217,2.3233,2.3251,2.3264,2.3263,2.3277,2.3287,2.3303,2.3314,2.3327,2.3345,2.336,2.3369,2.3384,2.3392,2.3392,2.3395,2.3394,2.3395,2.3376,2.3371,2.3395,2.3395,2.3395,2.3395,2.3395,2.3395,2.3225,2.3245,2.325,2.3276,2.3284,2.3302,2.331,2.332,2.3329,2.335,2.3362,2.3368,2.3378,2.3393,2.3406,2.3408,2.3413,2.3417,2.3418,2.3399,2.3397,2.3395,2.339,2.3418,2.3418,2.3437,2.3437,2.3437]}]]